| time (UTC) | temp F | wind direction | speed knots | gust knots | rain 1hr in | rain 24hr in | rain mn in | humidity % | barometer mb |
| 20260503210955 | 62 | 184 | 1.7 | 5.2 | 0.00 | 0.00 | 0.00 | 67 | 1011.4 |
| 20260503205955 | 62 | 193 | 1.7 | 4.3 | 0.00 | 0.00 | 0.00 | 70 | 1011.4 |
| 20260503204956 | 59 | 184 | 1.7 | 6.1 | 0.00 | 0.00 | 0.00 | 70 | 1011.4 |
| 20260503203955 | 59 | 156 | 2.6 | 6.1 | 0.00 | 0.00 | 0.00 | 71 | 1011.5 |
| 20260503202955 | 59 | 149 | 2.6 | 8.7 | 0.00 | 0.00 | 0.00 | 71 | 1011.6 |
| 20260503201955 | 60 | 182 | 1.7 | 6.1 | 0.00 | 0.00 | 0.00 | 66 | 1011.6 |
| 20260503200955 | 61 | 184 | 1.7 | 3.5 | 0.00 | 0.00 | 0.00 | 67 | 1011.7 |
| 20260503200015 | 61 | 188 | 1.7 | 4.3 | 0.00 | 0.00 | 0.00 | 69 | 1011.8 |
| 20260503194955 | 60 | 174 | 1.7 | 4.3 | 0.00 | 0.00 | 0.00 | 70 | 1011.7 |
| 20260503193956 | 60 | 186 | 1.7 | 4.3 | 0.00 | 0.00 | 0.00 | 70 | 1011.9 |
| 20260503192955 | 60 | 199 | 1.7 | 3.5 | 0.00 | 0.00 | 0.00 | 71 | 1011.8 |
| 20260503192016 | 59 | 187 | 1.7 | 4.3 | 0.00 | 0.00 | 0.00 | 73 | 1011.8 |
| 20260503190955 | 60 | 187 | 1.7 | 5.2 | 0.00 | 0.00 | 0.00 | 70 | 1011.8 |
| 20260503185955 | 60 | 166 | 1.7 | 5.2 | 0.00 | 0.00 | 0.00 | 73 | 1011.8 |
| 20260503184955 | 58 | 148 | 0.9 | 6.1 | 0.00 | 0.00 | 0.00 | 71 | 1011.7 |
| 20260503183954 | 59 | 184 | 1.7 | 3.5 | 0.00 | 0.00 | 0.00 | 71 | 1011.7 |
| 20260503182955 | 58 | 172 | 1.7 | 3.5 | 0.00 | 0.00 | 0.00 | 72 | 1011.7 |
| 20260503182015 | 58 | 174 | 1.7 | 5.2 | 0.00 | 0.00 | 0.00 | 74 | 1011.7 |
| 20260503180955 | 58 | 181 | 1.7 | 6.1 | 0.00 | 0.00 | 0.00 | 74 | 1011.7 |
| 20260503180035 | 58 | 88 | 0.9 | 3.5 | 0.00 | 0.00 | 0.00 | 73 | 1011.7 |
| 20260503175015 | 58 | 18 | 1.7 | 3.5 | 0.00 | 0.00 | 0.00 | 73 | 1011.8 |
| 20260503173955 | 58 | 24 | 0.9 | 2.6 | 0.00 | 0.00 | 0.00 | 74 | 1011.7 |
| 20260503172955 | 57 | 17 | 0.9 | 2.6 | 0.00 | 0.00 | 0.00 | 78 | 1011.7 |
| 20260503171954 | 56 | 295 | 0.9 | 2.6 | 0.00 | 0.00 | 0.00 | 78 | 1011.7 |
| 20260503170955 | 56 | 54 | 0.9 | 2.6 | 0.00 | 0.00 | 0.00 | 82 | 1011.7 |
| 20260503150956 | 51 | 142 | 0.9 | 2.6 | 0.00 | 0.00 | 0.00 | 93 | 1011.2 |
| 20260503130955 | 51 | 0.0 | 0.0 | 0.00 | 0.00 | 0.00 | 92 | 1009.8 | |
| 20260503081015 | 52 | 303 | 0.9 | 2.6 | 0.00 | 0.00 | 0.00 | 87 | 1010.4 |
| 20260503071955 | 52 | 278 | 0.0 | 2.6 | 0.00 | 0.00 | 0.00 | 86 | 1010.3 |
| 20260503070955 | 52 | 312 | 0.0 | 2.6 | 0.00 | 0.00 | 0.00 | 86 | 1010.3 |
| 20260503054955 | 52 | 255 | 0.9 | 7.0 | 0.00 | 0.00 | 0.00 | 85 | 1010.5 |
| 20260503054015 | 53 | 288 | 0.9 | 5.2 | 0.00 | 0.00 | 0.00 | 85 | 1010.6 |
| 20260503052955 | 53 | 268 | 0.9 | 2.6 | 0.00 | 0.00 | 0.00 | 85 | 1010.6 |
| 20260503051955 | 53 | 314 | 0.9 | 1.7 | 0.00 | 0.00 | 0.00 | 84 | 1010.7 |
| 20260503050955 | 53 | 295 | 0.9 | 5.2 | 0.00 | 0.00 | 0.00 | 84 | 1010.7 |
| 20260503045955 | 53 | 294 | 0.9 | 3.5 | 0.00 | 0.00 | 0.00 | 84 | 1010.8 |
| 20260503044955 | 53 | 318 | 0.9 | 3.5 | 0.00 | 0.00 | 0.00 | 84 | 1010.6 |
| 20260503043955 | 53 | 314 | 0.9 | 4.3 | 0.00 | 0.00 | 0.00 | 84 | 1010.5 |
| 20260503042955 | 53 | 311 | 0.9 | 7.0 | 0.00 | 0.00 | 0.00 | 84 | 1010.4 |
| 20260503041955 | 53 | 291 | 1.7 | 4.3 | 0.00 | 0.00 | 0.00 | 83 | 1010.4 |
| 20260503040955 | 53 | 274 | 0.9 | 2.6 | 0.00 | 0.00 | 0.00 | 84 | 1010.2 |
| 20260503035955 | 53 | 334 | 0.9 | 2.6 | 0.00 | 0.00 | 0.00 | 83 | 1010.1 |
| 20260503034955 | 54 | 294 | 0.9 | 2.6 | 0.00 | 0.00 | 0.00 | 83 | 1009.9 |
| 20260503033955 | 54 | 306 | 0.9 | 7.8 | 0.00 | 0.00 | 0.00 | 83 | 1009.8 |
| 20260503032955 | 54 | 264 | 0.9 | 3.5 | 0.00 | 0.00 | 0.00 | 83 | 1009.7 |
| 20260503032035 | 54 | 250 | 0.9 | 2.6 | 0.00 | 0.00 | 0.00 | 83 | 1009.6 |
| 20260503030955 | 55 | 281 | 0.9 | 3.5 | 0.00 | 0.00 | 0.00 | 83 | 1009.5 |
| 20260503030015 | 55 | 316 | 1.7 | 4.3 | 0.00 | 0.00 | 0.00 | 82 | 1009.5 |
| 20260503024956 | 55 | 301 | 0.9 | 3.5 | 0.00 | 0.00 | 0.00 | 82 | 1009.5 |
| 20260503023955 | 56 | 264 | 0.9 | 2.6 | 0.00 | 0.00 | 0.00 | 82 | 1009.3 |
| 20260503022956 | 56 | 300 | 0.9 | 5.2 | 0.00 | 0.00 | 0.00 | 81 | 1009.2 |
| 20260503021955 | 56 | 302 | 0.9 | 4.3 | 0.00 | 0.00 | 0.00 | 81 | 1009.2 |
| 20260503020955 | 57 | 317 | 0.9 | 8.7 | 0.00 | 0.00 | 0.00 | 80 | 1009.1 |
| 20260503015955 | 57 | 306 | 0.9 | 3.5 | 0.00 | 0.00 | 0.00 | 78 | 1009.2 |
| 20260503014955 | 58 | 357 | 0.9 | 2.6 | 0.00 | 0.00 | 0.00 | 78 | 1009.2 |
| 20260503014015 | 59 | 310 | 0.9 | 4.3 | 0.00 | 0.00 | 0.00 | 78 | 1009.3 |
| 20260503012955 | 59 | 153 | 0.9 | 1.7 | 0.00 | 0.00 | 0.00 | 77 | 1009.2 |
| 20260503011955 | 60 | 219 | 0.9 | 4.3 | 0.00 | 0.00 | 0.00 | 76 | 1009.2 |
| 20260503010955 | 61 | 301 | 0.9 | 3.5 | 0.00 | 0.00 | 0.00 | 74 | 1009.2 |
| 20260503010015 | 61 | 210 | 0.9 | 3.5 | 0.00 | 0.00 | 0.00 | 75 | 1009.2 |
| 20260503004955 | 62 | 149 | 0.0 | 5.2 | 0.00 | 0.00 | 0.00 | 74 | 1009.3 |
| 20260503003955 | 63 | 167 | 0.9 | 4.3 | 0.00 | 0.00 | 0.00 | 73 | 1009.2 |
| 20260503002955 | 63 | 99 | 0.9 | 6.1 | 0.00 | 0.00 | 0.00 | 71 | 1009.3 |
| 20260503001956 | 64 | 340 | 0.9 | 3.5 | 0.00 | 0.00 | 0.00 | 69 | 1009.3 |
| 20260503000955 | 66 | 240 | 1.7 | 3.5 | 0.00 | 0.00 | 0.00 | 67 | 1009.3 |
| 20260502235955 | 67 | 139 | 0.9 | 2.6 | 0.00 | 0.00 | 0.00 | 66 | 1009.3 |
| 20260502234956 | 67 | 21 | 1.7 | 3.5 | 0.00 | 0.00 | 0.00 | 67 | 1009.3 |
| 20260502234016 | 66 | 200 | 0.9 | 3.5 | 0.00 | 0.00 | 0.00 | 67 | 1009.4 |
| 20260502233015 | 66 | 126 | 1.7 | 6.1 | 0.00 | 0.00 | 0.00 | 68 | 1009.4 |
| 20260502231955 | 66 | 152 | 1.7 | 6.1 | 0.00 | 0.00 | 0.00 | 68 | 1009.5 |
| 20260502230956 | 65 | 140 | 2.6 | 6.1 | 0.00 | 0.00 | 0.00 | 68 | 1009.7 |
| 20260502225955 | 67 | 152 | 2.6 | 6.1 | 0.00 | 0.00 | 0.00 | 68 | 1009.8 |
| 20260502224955 | 65 | 154 | 3.5 | 8.7 | 0.00 | 0.00 | 0.00 | 68 | 1010.0 |
| 20260502224016 | 66 | 147 | 3.5 | 8.7 | 0.00 | 0.00 | 0.00 | 68 | 1010.2 |
| 20260502222955 | 66 | 153 | 4.3 | 9.6 | 0.00 | 0.00 | 0.00 | 67 | 1010.3 |
| 20260502222035 | 66 | 159 | 3.5 | 9.6 | 0.00 | 0.00 | 0.00 | 66 | 1010.5 |
| 20260502221016 | 66 | 161 | 2.6 | 7.8 | 0.00 | 0.00 | 0.00 | 67 | 1010.8 |
| 20260502215955 | 67 | 139 | 2.6 | 7.8 | 0.00 | 0.00 | 0.00 | 66 | 1010.9 |
| 20260502214955 | 67 | 170 | 2.6 | 7.8 | 0.00 | 0.00 | 0.00 | 67 | 1011.1 |
| 20260502213955 | 67 | 142 | 3.5 | 7.8 | 0.00 | 0.00 | 0.00 | 67 | 1011.3 |
| 20260502212955 | 66 | 166 | 1.7 | 3.5 | 0.00 | 0.00 | 0.00 | 68 | 1011.4 |
| 20260502211955 | 65 | 155 | 1.7 | 7.8 | 0.00 | 0.00 | 0.00 | 70 | 1011.4 |